Location: Berlin
(52.5171°N, 13.4421°E)
Time: 20:10:32
(UTC+02:00)

ISS - Visible Passes

Search period start: 12 October 2024 00:00
Search period end: 22 October 2024 00:00
Orbit: 411 x 424 km, 51.6° (Epoch: 12 October)

Date Brightness Start Highest point End Pass type
(mag) Time Alt. Az. Time Alt. Az. Time Alt. Az.
18 Oct -0.9 06:23:39 10° S 06:25:31 14° SE 06:27:23 10° ESE visible
20 Oct -1.9 06:21:58 10° SSW 06:24:49 26° SSE 06:27:40 10° E visible
21 Oct -1.6 05:35:12 16° S 05:36:21 19° SE 05:38:48 10° E visible
